Akron, CO

5:33 PM MDT on May 22, 2017 (GMT -0600)
Akron-Washington County

Weather History for KAKO - November, 2013

Change the Weather History Date:

Friday, November 1, 2013

  Actual Average Record
Temperature  
Mean Temperature 41 °F 44 °F  
Max Temperature 53 °F 57 °F 87 °F (1938)
Min Temperature 29 °F 31 °F -4 °F (1951)
Degree Days  
Heating Degree Days 24    
Month to date heating degree days 24  
Cooling Degree Days 0    
Month to date cooling degree days 0  
Moisture  
Dew Point 25 °F    
Average Humidity 59    
Maximum Humidity 89    
Minimum Humidity 28    
Precipitation  
Precipitation 0.00 in 0.02 in 0.53 in (1972)
Month to date precipitation 0.00 0.02  
Year to date precipitation 16.80 15.78  
Sea Level Pressure  
Sea Level Pressure 30.09 in    
Wind  
Wind Speed 15 mph (NW)    
Max Wind Speed 30 mph    
Max Gust Speed 38 mph    
Visibility 10 miles    
Events      
T = Trace of Precipitation, MM = Missing Value Source: NWS Daily Summary

Daily Weather History Graph

Daily Weather History Graph

Search for Another Location

Airport or City:

Trip Planner

Search our weather history database for the weather conditions in past years. The results will help you decide how hot, cold, wet, or windy it might be!

Date:

Astronomy

Nov. 01, 2013 Rise Set
Actual Time 7:22 AM MDT 5:49 PM MDT
Civil Twilight 6:54 AM MDT 6:17 PM MDT
Nautical Twilight 6:22 AM MDT 6:49 PM MDT
Astronomical Twilight 5:50 AM MDT 7:21 PM MDT
Moon 5:17 AM MDT (11/1) 4:44 PM MDT (11/1)
Length of Visible Light 11h 23m
Length of Day
10h 27m
Waning Crescent, 4% of the Moon is Illuminated
Nov 1
Waning Crescent
Nov 3
New
Nov 9
First Quarter
Nov 17
Full
Nov 25
Last Quarter

Hourly Weather History & Observations

Time (MDT) Temp. Windchill Dew Point Humidity Pressure Visibility Wind Dir Wind Speed Gust Speed Precip Events Conditions
12:53 AM 46.0 °F 38.8 °F 27.0 °F 47% 29.83 in 10.0 mi NW 18.4 mph - N/A   Overcast
1:53 AM 39.9 °F 32.5 °F 28.9 °F 65% 29.88 in 10.0 mi NNW 12.7 mph - N/A   Partly Cloudy
2:53 AM 37.9 °F 31.5 °F 33.1 °F 83% 29.91 in 10.0 mi NW 9.2 mph - N/A   Mostly Cloudy
3:53 AM 35.1 °F 27.4 °F 32.0 °F 89% 29.93 in 10.0 mi NW 10.4 mph - N/A   Scattered Clouds
4:53 AM 39.0 °F 31.8 °F 33.1 °F 79% 29.95 in 10.0 mi WNW 11.5 mph - N/A   Overcast
5:53 AM 39.0 °F 31.0 °F 32.0 °F 76% 30.00 in 10.0 mi NW 13.8 mph - N/A   Overcast
6:53 AM 39.9 °F 30.8 °F 30.0 °F 68% 30.03 in 10.0 mi NW 18.4 mph - N/A   Overcast
7:53 AM 39.0 °F 30.6 °F 30.0 °F 70% 30.07 in 10.0 mi NW 15.0 mph - N/A   Overcast
8:53 AM 41.0 °F 31.9 °F 28.9 °F 62% 30.09 in 10.0 mi NNW 19.6 mph - N/A   Overcast
9:53 AM 42.1 °F 33.1 °F 28.9 °F 60% 30.12 in 10.0 mi NNW 20.7 mph 26.5 mph N/A   Overcast
10:53 AM 45.0 °F 36.0 °F 28.0 °F 52% 30.12 in 10.0 mi NNW 25.3 mph 31.1 mph N/A   Mostly Cloudy
11:53 AM 46.9 °F - 25.0 °F 42% 30.11 in 10.0 mi NNW 25.3 mph 32.2 mph N/A   Mostly Cloudy
12:53 PM 50.0 °F - 24.1 °F 36% 30.08 in 10.0 mi North 25.3 mph 31.1 mph N/A   Partly Cloudy
1:53 PM 48.9 °F - 19.0 °F 31% 30.09 in 10.0 mi NW 23.0 mph 34.5 mph N/A   Scattered Clouds
2:53 PM 52.0 °F - 19.9 °F 28% 30.09 in 10.0 mi NNW 21.9 mph 31.1 mph N/A   Mostly Cloudy
3:53 PM 51.1 °F - 19.0 °F 28% 30.11 in 10.0 mi NW 23.0 mph 29.9 mph N/A   Mostly Cloudy
4:53 PM 48.9 °F - 21.9 °F 35% 30.13 in 10.0 mi NNW 19.6 mph 26.5 mph N/A   Mostly Cloudy
5:53 PM 42.1 °F 35.7 °F 21.9 °F 45% 30.15 in 10.0 mi NW 11.5 mph - N/A   Clear
6:53 PM 35.1 °F 27.4 °F 21.9 °F 59% 30.20 in 10.0 mi NNW 10.4 mph - N/A   Clear
7:53 PM 34.0 °F 26.6 °F 23.0 °F 64% 30.22 in 10.0 mi NNW 9.2 mph - N/A   Partly Cloudy
8:53 PM 36.0 °F 30.3 °F 21.9 °F 57% 30.22 in 10.0 mi NNW 6.9 mph - N/A   Clear
9:53 PM 36.0 °F - 21.0 °F 55% 30.23 in 10.0 mi Calm Calm - N/A   Clear
10:53 PM 32.0 °F 27.5 °F 19.9 °F 61% 30.25 in 10.0 mi WSW 4.6 mph - N/A   Clear
11:53 PM 30.9 °F 24.3 °F 21.0 °F 67% 30.26 in 10.0 mi SW 6.9 mph - N/A   Clear